Location: Unspecified
(50.0920°N, 0.0000°E)
Time: 21:06:58
(UTC+00:00)

RS-15 - Visible Passes

Search period start: 04 April 2026 00:00
Search period end: 14 April 2026 00:00
Orbit: 1893 x 2151 km, 64.8° (Epoch: 29 March)

Date Brightness Start Highest point End Pass type
(mag) Time Alt. Az. Time Alt. Az. Time Alt. Az.
4 Apr 8.0 02:00:41 10° NW 02:11:49 58° WSW 02:17:45 32° S visible
4 Apr 9.2 04:16:02 10° WNW 04:21:33 15° W 04:25:17 13° WSW visible
4 Apr 9.1 20:57:12 10° WNW 21:07:27 39° N 21:18:07 10° ENE visible
4 Apr 8.5 23:11:43 10° NW 23:22:51 54° NNE 23:33:34 13° ESE visible
5 Apr 7.9 01:24:31 10° NW 01:35:56 70° WSW 01:41:12 39° S visible
5 Apr 8.9 03:38:35 10° NW 03:46:14 21° W 03:48:49 19° WSW visible
5 Apr 9.1 20:20:27 10° WNW 20:30:42 39° N 20:41:24 10° ENE visible
5 Apr 8.7 22:35:25 10° NW 22:46:20 48° NNE 22:57:34 10° E visible
6 Apr 7.9 00:48:24 10° NW 00:59:56 83° SW 01:05:14 41° SSE visible
6 Apr 8.7 03:01:46 10° NW 03:10:48 28° WSW 03:12:53 26° WSW visible
6 Apr 9.1 19:43:39 10° W 19:53:59 41° NNW 20:04:46 10° NE visible
6 Apr 8.8 21:59:02 10° NW 22:09:43 44° NNE 22:20:52 10° E visible
7 Apr 8.0 00:12:17 10° NW 00:23:51 84° NE 00:29:32 39° SE visible
7 Apr 8.5 02:25:16 10° NW 02:35:14 36° WSW 02:37:13 34° SW visible
7 Apr 9.0 19:06:53 10° W 19:17:19 45° NNW 19:28:14 10° NE visible
7 Apr 8.9 21:22:33 10° NW 21:33:02 41° NNE 21:43:58 10° E visible
7 Apr 8.1 23:36:09 10° NW 23:47:39 73° NE 23:54:02 33° ESE visible
8 Apr 8.3 01:48:56 10° NW 01:59:35 45° WSW 02:01:43 42° SW visible
8 Apr 9.0 20:45:58 10° WNW 20:56:19 39° N 21:07:06 10° ENE visible
8 Apr 8.3 22:59:58 10° NW 23:11:20 63° NE 23:18:39 27° ESE visible
9 Apr 8.1 01:12:43 10° NW 01:23:49 56° WSW 01:26:21 49° SSW visible
9 Apr 9.3 03:28:22 10° WNW 03:33:28 14° W 03:34:02 14° W visible
9 Apr 9.1 20:09:18 10° WNW 20:19:34 39° N 20:30:16 10° ENE visible
9 Apr 8.5 22:23:45 10° NW 22:34:56 55° NNE 22:43:21 21° ESE visible
10 Apr 8.0 00:36:33 10° NW 00:47:56 68° WSW 00:51:04 53° S visible
10 Apr 9.0 02:50:45 10° WNW 02:58:10 20° W 02:58:46 20° W visible
10 Apr 9.1 19:32:34 10° WNW 19:42:49 39° N 19:53:31 10° ENE visible
10 Apr 8.6 21:47:29 10° NW 21:58:26 49° NNE 22:08:08 15° E visible
11 Apr 7.9 00:00:25 10° NW 00:11:58 81° SW 00:15:51 51° SSE visible
11 Apr 8.8 02:13:53 10° NW 02:22:44 27° WSW 02:23:33 26° WSW visible
11 Apr 8.8 21:11:06 10° NW 21:21:50 44° NNE 21:32:59 10° E visible
11 Apr 8.0 23:24:18 10° NW 23:35:53 86° NE 23:40:42 45° SE visible
12 Apr 8.6 01:37:21 10° NW 01:47:12 34° WSW 01:48:24 34° WSW visible
12 Apr 8.9 20:34:38 10° NW 20:45:10 41° NNE 20:56:08 10° E visible
12 Apr 8.1 22:48:11 10° NW 22:59:42 74° NE 23:05:35 37° ESE visible
13 Apr 8.3 01:01:00 10° NW 01:11:34 44° WSW 01:13:18 41° SW visible
13 Apr 9.0 19:58:04 10° WNW 20:08:27 39° N 20:19:15 10° ENE visible
13 Apr 8.3 22:12:01 10° NW 22:23:24 64° NE 22:30:32 28° ESE visible
